Total_Precipitation_Accumulation
0.10 0.12 0.08 0.08 0.05 0.07 0.04 0.03 0.01 0.01 0.00 0.00 0.00 0.00 0.02 0.05 0.04 0.05 0.09 0.09 0.03 0.14 0.31 0.33 0.46 0.69 0.48 0.25 0.17 0.17 0.16 0.19 0.24 0.23 0.16 0.10 0.06 0.03 0.01 0.01 0.02 0.03 0.06
0.15 0.18 0.14 0.12 0.10 0.08 0.08 0.06 0.03 0.02 0.01 0.00 0.01 0.00 0.02 0.01 0.00 0.03 0.03 0.09 0.03 0.01 0.17 0.40 0.52 0.73 0.45 0.15 0.05 0.05 0.08 0.08 0.09 0.14 0.10 0.07 0.06 0.02 0.01 0.01 0.01 0.02 0.04
0.18 0.22 0.22 0.17 0.11 0.09 0.11 0.07 0.06 0.04 0.03 0.02 0.02 0.01 0.00 0.01 0.00 0.00 0.02 0.04 0.06 0.02 0.02 0.10 0.36 0.49 0.44 0.20 0.07 0.02 0.04 0.04 0.03 0.05 0.05 0.03 0.01 0.01 0.00 0.01 0.01 0.01 0.02
0.16 0.21 0.28 0.24 0.25 0.21 0.15 0.08 0.04 0.03 0.02 0.03 0.03 0.03 0.02 0.00 0.00 0.00 0.01 0.02 0.04 0.11 0.07 0.04 0.13 0.19 0.27 0.32 0.17 0.04 0.02 0.07 0.05 0.06 0.06 0.01 0.01 0.00 0.00 0.01 0.01 0.01 0.01
0.32 0.30 0.23 0.27 0.33 0.30 0.23 0.16 0.06 0.01 0.01 0.02 0.03 0.04 0.03 0.01 0.02 0.02 0.01 0.01 0.01 0.03 0.10 0.08 0.02 0.03 0.10 0.15 0.21 0.15 0.05 0.04 0.05 0.05 0.06 0.02 0.01 0.00 0.01 0.01 0.01 0.01 0.01
0.54 0.54 0.45 0.33 0.34 0.31 0.25 0.23 0.19 0.12 0.03 0.01 0.01 0.02 0.02 0.02 0.02 0.03 0.02 0.02 0.01 0.01 0.05 0.18 0.10 0.03 0.04 0.09 0.10 0.14 0.10 0.10 0.09 0.05 0.07 0.03 0.01 0.01 0.01 0.01 0.01 0.01 0.01
0.64 0.85 0.86 0.72 0.45 0.34 0.25 0.26 0.28 0.26 0.19 0.10 0.12 0.05 0.03 0.02 0.01 0.01 0.02 0.02 0.02 0.01 0.02 0.07 0.14 0.13 0.06 0.09 0.09 0.11 0.09 0.12 0.13 0.13 0.09 0.06 0.02 0.00 0.00 0.01 0.01 0.01 0.01
0.43 0.67 0.86 0.97 1.17 0.86 0.57 0.41 0.41 0.41 0.63 0.74 0.42 0.10 0.05 0.03 0.01 0.00 0.00 0.01 0.00 0.01 0.01 0.01 0.04 0.10 0.14 0.24 0.15 0.08 0.08 0.18 0.19 0.18 0.24 0.17 0.13 0.00 0.01 0.01 0.01 0.01 0.01
0.21 0.36 0.67 0.72 0.66 0.82 0.94 0.99 1.06 1.05 0.92 0.90 0.85 0.53 0.13 0.04 0.00 0.00 0.00 0.00 0.01 0.01 0.00 0.00 0.01 0.02 0.11 0.19 0.23 0.15 0.07 0.09 0.16 0.20 0.22 0.10 0.07 0.02 0.00 0.00 0.01 0.01 0.01
0.25 0.27 0.34 0.38 0.67 0.84 0.56 0.70 0.56 0.75 0.97 1.11 1.33 0.95 0.45 0.07 0.01 0.00 0.01 0.00 0.00 0.00 0.00 0.01 0.02 0.03 0.05 0.15 0.19 0.12 0.07 0.04 0.05 0.09 0.16 0.16 0.09 0.05 0.02 0.01 0.01 0.01 0.01
0.28 0.33 0.38 0.41 0.50 0.55 0.56 0.55 0.36 0.25 0.29 0.37 0.39 0.69 0.89 0.39 0.08 0.01 0.01 0.02 0.02 0.00 0.00 0.01 0.00 0.02 0.05 0.09 0.18 0.15 0.06 0.03 0.01 0.03 0.06 0.10 0.09 0.07 0.05 0.02 0.01 0.01 0.01
0.51 0.55 0.47 0.52 0.93 1.09 0.83 0.58 0.81 0.70 0.51 0.36 0.38 0.49 0.37 0.24 0.11 0.05 0.01 0.01 0.02 0.01 0.01 0.01 0.02 0.02 0.07 0.13 0.12 0.14 0.13 0.07 0.06 0.09 0.09 0.08 0.07 0.06 0.06 0.04 0.03 0.02 0.02
1.70 1.75 1.58 1.31 1.28 1.41 1.72 1.02 0.83 1.13 1.38 0.99 0.72 0.49 0.46 0.39 0.24 0.18 0.13 0.04 0.03 0.02 0.06 0.05 0.03 0.03 0.03 0.15 0.17 0.12 0.08 0.11 0.16 0.25 0.20 0.13 0.12 0.09 0.05 0.09 0.09 0.06 0.04
2.26 2.51 2.82 2.98 2.44 1.93 2.09 1.97 1.32 1.20 1.62 1.83 1.51 1.16 0.79 0.76 0.72 0.58 0.40 0.41 0.28 0.17 0.10 0.02 0.03 0.06 0.06 0.11 0.15 0.22 0.21 0.16 0.14 0.12 0.14 0.16 0.15 0.13 0.12 0.11 0.14 0.16 0.11
1.22 1.54 1.72 2.01 2.65 2.78 2.28 2.07 1.82 1.51 1.51 1.68 1.71 1.83 1.79 1.15 0.80 0.79 0.81 0.67 0.52 0.25 0.09 0.05 0.09 0.05 0.08 0.18 0.20 0.21 0.12 0.13 0.15 0.15 0.14 0.10 0.09 0.14 0.16 0.15 0.14 0.12 0.12
1.09 0.95 1.12 1.22 1.17 1.29 1.42 1.79 1.94 1.75 1.66 1.60 1.48 1.55 1.82 1.99 1.64 1.36 1.23 1.23 0.88 0.54 0.29 0.16 0.20 0.17 0.23 0.17 0.21 0.25 0.13 0.14 0.10 0.10 0.08 0.07 0.09 0.10 0.13 0.17 0.20 0.20 0.16
0.81 0.86 0.80 0.83 0.94 0.82 0.91 1.01 0.99 1.21 1.52 1.69 1.59 1.59 1.85 2.19 2.06 1.97 1.88 1.63 1.32 1.13 1.08 0.70 0.47 0.47 0.38 0.28 0.28 0.26 0.24 0.15 0.13 0.18 0.16 0.12 0.11 0.10 0.10 0.12 0.14 0.18 0.20
0.70 0.56 0.57 0.67 0.76 0.82 0.88 0.91 1.00 0.98 0.91 1.00 1.11 1.14 1.19 1.31 1.49 1.65 1.79 1.98 1.96 1.69 1.44 1.21 0.99 0.94 0.96 0.71 0.55 0.44 0.34 0.29 0.20 0.18 0.19 0.19 0.18 0.19 0.20 0.17 0.14 0.13 0.15
0.95 1.04 0.84 0.75 0.72 0.71 0.72 0.73 0.73 0.79 0.87 1.03 1.08 1.13 1.12 1.02 1.07 1.14 1.16 1.12 1.03 1.04 1.13 1.04 0.99 0.94 0.74 0.55 0.42 0.33 0.32 0.28 0.22 0.23 0.25 0.25 0.24 0.24 0.26 0.27 0.27 0.24 0.21
0.89 1.34 1.48 1.49 1.24 0.96 0.96 0.81 0.67 0.77 0.70 0.84 0.80 0.73 0.82 0.90 0.80 0.76 0.77 0.74 0.65 0.65 0.68 0.71 0.62 0.54 0.49 0.49 0.58 0.57 0.45 0.33 0.28 0.19 0.20 0.18 0.22 0.25 0.28 0.29 0.30 0.34 0.35
0.37 0.95 1.03 1.10 0.92 0.69 0.62 0.31 0.29 0.46 0.64 0.46 0.40 0.42 0.45 0.50 0.46 0.35 0.31 0.32 0.44 0.57 0.63 0.63 0.62 0.57 0.52 0.47 0.47 0.47 0.42 0.31 0.24 0.15 0.15 0.15 0.18 0.19 0.18 0.22 0.27 0.29 0.30
0.03 0.10 0.10 0.18 0.38 0.32 0.34 0.20 0.23 0.27 0.25 0.20 0.19 0.22 0.29 0.37 0.28 0.28 0.29 0.28 0.26 0.26 0.31 0.40 0.42 0.39 0.30 0.27 0.31 0.41 0.43 0.48 0.41 0.15 0.23 0.20 0.20 0.20 0.20 0.21 0.29 0.26 0.29
0.00 0.00 0.02 0.06 0.09 0.15 0.20 0.18 0.18 0.16 0.21 0.31 0.46 0.48 0.40 0.40 0.39 0.24 0.31 0.34 0.38 0.47 0.43 0.36 0.36 0.36 0.34 0.33 0.37 0.39 0.42 0.38 0.24 0.12 0.30 0.39 0.29 0.27 0.23 0.25 0.37 0.32 0.35
0.00 0.00 0.00 0.00 0.00 0.00 0.01 0.04 0.15 0.25 0.28 0.30 0.52 0.65 0.72 0.72 0.65 0.58 0.45 0.41 0.37 0.38 0.41 0.41 0.42 0.39 0.38 0.37 0.40 0.35 0.31 0.37 0.39 0.26 0.32 0.47 0.28 0.28 0.27 0.27 0.39 0.30 0.34
0.00 0.01 0.00 0.00 0.00 0.00 0.00 0.00 0.02 0.04 0.09 0.16 0.23 0.27 0.30 0.32 0.40 0.37 0.33 0.36 0.33 0.36 0.41 0.44 0.46 0.52 0.47 0.39 0.32 0.28 0.29 0.31 0.27 0.20 0.19 0.22 0.22 0.24 0.21 0.20 0.20 0.26 0.27
0.01 0.01 0.01 0.01 0.01 0.00 0.00 0.00 0.01 0.05 0.11 0.13 0.16 0.19 0.23 0.23 0.27 0.22 0.20 0.25 0.28 0.29 0.31 0.32 0.35 0.36 0.36 0.39 0.52 0.52 0.51 0.38 0.28 0.17 0.14 0.18 0.14 0.17 0.22 0.18 0.13 0.11 0.10